STARLINK-3315 (50848 NORAD) Tracking and Keplerian Element Data

This shows tracking and keplerian element data for the satellite.

Feedback or suggestion? Click here.




ElementValue
Catalog50848
NameSTARLINK-3315
Epoch Orbit383
Epoch Day22.91667824
Epoch Year2022
RAAN119.7389
Inclination53.2175
Eccentricity0.0001088
Argument of Perigee62.7192
Mean Anonmoly262.7803
Mean Motion15.75470476
Decay Rate-0.00821288
L11 50848U 22001AX 22022.91667824 -.00821288 00000+0 -58359-2 0 9993
L22 50848 53.2175 119.7389 0001088 62.7192 262.7803 15.75470476 3830

Live tracking and technical data element details for STARLINK-3315 (NORAD 50848). STARLINK-3315 can be tracked NOW for your location showing map with azimuth and elevation plus other details from your city location.

Track the satellite on the map from your city or location and see movement details for azimuth, elevation, latitude, longitude, range, height, and movement on the map or in text.







IsCatalogInMostPopularTable: catalog: 50848, numindb: 4
Update: records affected: 1



GetName: 50848 STARLINK-3315

Hit Count: updated at: Sun, 23 Jan 2022 23:41:03 GMT